Theta_e
331 331 331 331 333 332 336 336 341 342 344 345 349 344 346 347 346 347 346 346 347 344
326 327 325 326 331 328 331 330 332 333 335 339 343 346 348 345 344 349 349 350 350 349
322 323 325 326 325 328 330 331 332 332 332 333 337 340 344 346 349 345 347 348 348 350
320 319 322 323 323 324 327 329 328 330 330 329 330 334 338 340 343 344 346 348 345 346
316 315 317 319 320 324 324 326 328 330 331 329 329 331 329 329 334 336 337 340 343 343
313 314 314 314 316 317 319 322 323 327 328 328 328 327 328 328 327 329 332 335 339 340
313 314 315 316 317 317 317 317 319 320 322 328 328 327 326 327 328 328 328 331 335 337
314 314 315 315 316 317 317 316 317 317 319 321 324 322 323 326 328 328 327 327 328 331
312 313 313 315 315 316 316 316 317 317 317 318 318 305 304 310 323 327 327 326 326 326
311 311 312 313 314 315 315 317 316 317 318 318 319 305 302 303 318 322 325 327 327 325
310 310 311 312 313 315 315 315 316 316 317 318 318 307 303 302 318 320 322 324 325 326
311 311 311 311 313 314 314 315 315 316 316 317 318 305 302 305 317 317 318 319 321 322
311 311 311 312 313 314 315 315 314 315 317 313 317 306 303 306 313 315 314 318 319 310
311 312 312 312 312 314 315 315 315 315 316 317 315 315 302 300 312 312 312 312 313 316
Wind_Speed
12 6 5 6 4 3 4 5 5 4 4 3 5 6 7 7 10 10 11 14 12 10
10 7 6 5 7 4 3 3 2 4 3 3 3 2 6 7 8 9 9 10 11 10
10 10 8 8 5 5 5 3 3 4 3 3 2 2 3 5 6 8 6 7 10 10
10 10 8 9 8 9 7 4 1 2 2 2 3 4 4 5 6 7 8 8 8 10
9 9 10 8 8 9 9 10 7 4 3 3 2 2 4 5 6 7 7 7 9 10
5 6 2 3 5 9 8 8 9 8 5 5 2 4 4 4 5 5 7 6 10 9
8 6 5 5 6 5 5 7 8 8 9 6 4 4 5 5 5 5 4 5 7 8
6 4 7 7 7 7 6 6 7 8 7 7 6 4 7 7 7 6 6 5 6 5
6 7 7 7 7 8 8 7 8 8 7 8 7 10 4 7 8 8 7 6 7 8
10 10 10 9 9 8 8 9 9 8 9 8 8 6 3 6 8 9 9 9 8 9
9 10 10 10 10 9 9 10 9 8 8 8 6 5 3 7 10 10 10 10 10 10
11 11 11 11 11 11 10 9 9 9 9 8 8 2 2 7 9 8 9 10 12 11
11 12 12 13 13 10 10 10 9 9 9 8 9 3 5 4 8 8 8 8 9 9
12 12 12 9 10 11 10 10 10 10 9 10 9 7 6 3 8 8 8 9 8 6
Wind_Direction
64 62 78 71 39 50 23 38 21 54 50 31 179 205 234 231 230 222 229 238 244 250
49 51 81 61 6 353 50 87 22 43 42 60 6 177 205 219 237 241 232 241 235 234
51 39 47 51 39 8 6 331 14 20 22 15 25 337 288 221 231 243 244 248 246 235
44 39 26 44 14 4 347 339 349 326 345 360 7 346 311 287 264 267 263 249 243 265
29 25 12 24 7 3 348 343 347 320 300 282 323 335 315 299 316 293 273 286 274 268
29 20 330 320 3 340 342 338 351 345 320 304 327 289 296 300 306 305 299 302 302 296
25 26 330 357 338 320 323 319 342 339 328 308 313 300 319 318 306 303 315 307 307 303
357 343 338 347 343 345 332 320 311 301 296 310 297 48 344 332 308 302 305 307 297 286
350 338 334 322 333 316 318 320 320 317 313 297 292 96 44 333 314 303 301 303 304 305
334 339 336 327 321 312 313 307 308 310 305 304 298 88 30 333 302 302 297 294 297 294
335 332 321 312 309 314 305 296 294 291 293 297 292 89 2 315 287 279 283 286 289 288
328 319 315 312 318 311 299 295 289 293 293 294 301 91 157 290 298 279 285 283 282 283
309 304 312 313 308 303 297 289 291 298 297 295 287 274 158 259 292 299 294 288 279 253
295 296 294 303 294 294 289 291 288 294 296 291 285 296 124 197 301 302 304 303 293 292